Wind_Speed
44 43 42 41 40 39 38 37 36 35 35 35 36 36 36 37 38 38 39 40 41 42 43 45 47 48 51 52 54 56 58 60 62 63 63 63 62 62
44 43 41 40 39 38 38 37 35 35 35 35 36 37 36 37 37 38 39 40 41 42 44 46 47 49 50 53 55 57 59 61 62 63 63 63 62 61
44 43 41 40 39 37 37 36 35 34 34 35 36 36 36 36 37 38 39 40 41 43 44 46 47 49 51 54 56 58 59 61 62 63 63 62 61 59
42 41 41 40 39 38 37 35 35 34 35 35 35 35 35 36 37 38 39 40 41 43 45 46 47 49 52 54 57 58 59 61 63 64 63 61 59 57
41 39 39 39 38 38 37 35 35 34 35 35 34 34 35 35 36 38 39 40 42 43 45 46 48 51 53 55 56 58 60 62 63 63 60 57 56 54
42 39 38 37 37 36 36 35 35 34 35 34 34 34 34 35 36 37 38 40 42 44 45 47 49 51 54 55 57 59 61 62 62 60 57 54 53 52
41 39 37 36 36 35 34 34 33 34 34 33 33 33 34 35 36 37 38 40 42 43 45 48 50 52 54 55 57 60 61 61 59 57 54 52 52 51
40 38 37 36 36 34 33 32 32 33 32 31 32 33 33 34 36 37 38 40 41 43 46 48 51 52 53 55 57 59 60 59 56 54 52 51 50 48
39 39 37 35 35 33 32 32 32 32 31 31 32 32 33 34 35 36 38 40 41 44 46 48 50 51 53 55 58 58 58 56 53 51 50 49 48 46
39 39 37 35 34 33 31 31 30 30 31 31 32 32 33 34 35 36 38 39 41 44 46 48 49 51 53 55 56 56 55 53 51 49 48 47 45 44
37 38 37 36 33 32 31 31 30 30 30 30 31 31 32 33 34 36 37 39 42 44 45 46 48 51 53 54 54 54 52 50 49 48 46 44 43 41
37 36 34 34 33 31 30 30 29 29 29 29 30 31 32 32 33 35 37 39 41 42 43 45 48 50 51 51 52 51 50 48 47 46 44 42 41 40
36 35 33 32 31 30 29 29 28 29 29 30 31 31 32 32 32 34 37 39 40 41 43 45 47 48 48 49 50 49 48 46 45 43 42 41 39 38
35 34 33 31 30 29 29 29 29 29 30 30 30 31 31 31 33 35 36 38 39 41 43 44 45 45 47 47 47 47 46 43 41 41 41 39 37 36
34 34 33 31 29 30 29 29 29 29 29 29 29 30 30 31 33 34 36 37 38 40 41 42 43 44 45 46 45 44 42 40 39 39 39 37 36 34
35 34 33 30 29 29 28 27 27 28 28 28 28 29 30 31 32 33 34 36 38 38 39 40 41 42 44 44 44 42 39 37 38 38 37 35 34 32
36 34 33 32 30 28 28 28 28 28 28 28 28 28 29 30 31 32 34 35 36 36 37 38 39 41 42 43 42 39 37 36 37 37 35 33 32 30
34 33 32 32 31 29 28 27 27 27 27 27 28 28 28 29 30 31 32 33 33 34 35 37 38 40 41 40 39 37 35 35 35 35 33 31 30 29
32 32 31 30 29 28 26 26 26 26 26 26 26 27 27 27 28 29 30 31 32 33 34 36 37 39 38 38 36 35 34 34 34 33 31 29 29 28
30 30 30 29 28 27 26 26 26 25 25 26 25 25 25 26 26 27 28 29 30 31 33 35 36 36 36 35 34 33 33 33 33 31 30 28 28 28
29 28 28 28 27 27 27 26 25 25 25 25 24 24 24 24 25 26 27 28 29 31 33 34 34 34 34 33 32 31 32 32 31 30 29 27 27 26
29 27 27 27 27 26 25 25 24 24 23 23 22 22 22 22 24 25 26 27 28 30 31 32 32 32 32 32 30 30 30 30 29 28 28 26 25 24
28 27 26 26 26 24 24 24 24 23 22 21 20 20 20 21 22 23 25 25 27 28 29 30 30 31 30 30 29 29 29 28 27 27 26 25 24 24
Wind_Direction
237 239 241 244 247 251 255 259 264 268 272 276 280 283 287 290 293 295 298 301 303 305 308 310 311 312 314 315 317 318 318 319 319 320 320 320 319 318
237 239 241 244 247 251 255 259 264 269 272 277 280 283 286 289 293 296 298 301 304 306 308 310 311 313 315 316 317 318 318 319 320 321 321 321 320 319
236 238 239 242 246 250 254 259 264 268 273 277 280 282 286 289 293 296 299 301 304 306 308 310 311 313 315 317 318 319 319 320 321 321 321 321 320 320
235 237 239 242 244 248 253 258 262 267 272 276 280 282 285 289 293 297 299 301 303 306 308 310 312 314 316 317 319 319 320 321 321 322 322 322 321 321
233 236 239 241 245 248 252 257 262 267 271 275 279 283 286 290 293 296 299 301 303 306 309 311 313 315 316 318 319 320 321 321 322 323 323 323 323 324
231 234 238 240 245 248 253 257 262 265 269 274 278 283 287 290 293 296 299 302 305 307 308 311 313 315 317 318 320 321 322 322 323 323 323 324 325 326
231 234 237 241 245 249 254 257 261 266 269 274 279 284 288 291 294 296 299 303 305 308 310 312 314 316 318 319 321 322 323 323 323 324 324 324 325 327
231 234 237 241 245 249 253 257 262 266 270 274 279 284 288 291 294 297 300 304 306 308 311 313 315 317 319 320 322 323 324 324 324 324 324 325 326 327
232 233 236 240 244 249 253 257 260 266 270 273 279 284 288 292 294 297 301 304 306 309 312 314 316 318 320 321 323 324 325 325 325 325 325 326 327 328
232 233 235 239 244 249 253 257 262 268 272 276 281 284 289 292 294 298 301 305 307 310 313 314 316 319 321 323 324 325 325 325 326 326 327 327 328 329
231 233 236 239 244 247 252 258 262 266 271 277 282 286 289 291 294 299 303 306 308 311 314 316 318 320 322 324 325 326 326 326 326 327 328 329 329 330
231 233 237 241 244 248 252 256 260 265 271 278 283 286 289 291 295 300 304 307 309 312 315 317 319 321 323 325 326 327 327 327 327 329 330 330 331 331
232 234 237 239 243 247 250 255 260 265 271 278 282 286 289 291 295 301 304 307 310 313 316 318 321 323 325 327 327 328 328 328 329 331 332 332 332 333
231 235 235 237 241 245 250 255 260 265 271 276 281 286 289 291 297 302 305 308 311 314 317 320 322 325 327 328 328 329 329 330 331 333 334 334 334 334
230 233 233 235 239 244 249 254 258 265 271 275 280 285 289 294 298 302 305 309 312 315 318 321 324 326 328 329 330 330 331 332 333 334 335 335 336 336
229 232 233 235 240 245 247 252 257 264 270 275 281 285 289 294 299 302 306 310 313 316 319 323 325 327 329 330 331 331 332 333 334 335 336 336 337 338
229 231 232 236 241 245 248 253 258 264 269 275 280 285 290 295 299 302 306 310 313 317 320 323 326 328 330 331 332 332 333 334 336 337 337 338 339 340
227 229 232 238 242 244 250 254 258 263 269 275 281 287 291 295 298 303 307 311 314 318 322 325 327 329 332 333 334 334 334 336 337 338 339 339 340 341
225 228 231 235 239 242 246 251 258 264 270 274 280 286 290 295 299 303 307 311 315 319 323 326 328 331 333 334 336 336 337 338 339 340 341 341 342 342
223 225 228 232 236 241 246 252 258 264 269 275 281 286 290 295 300 304 308 313 318 321 324 327 330 332 334 336 337 338 339 340 341 342 343 344 344 345
222 224 227 230 235 241 247 253 258 263 269 275 279 285 290 295 300 304 309 314 318 322 326 328 331 333 335 336 337 339 341 342 343 344 345 346 347 349
221 222 224 228 234 241 246 251 256 262 268 274 278 282 287 293 300 305 310 314 318 323 326 329 332 334 335 337 338 340 342 343 345 346 348 349 352 354
218 220 224 229 233 238 243 249 255 262 267 272 276 280 285 293 300 306 310 315 319 323 328 332 334 336 337 339 339 341 343 345 347 349 350 353 356 358
Height
5700 5705 5710 5714 5717 5721 5723 5724 5726 5726 5726 5725 5724 5722 5720 5718 5715 5712 5708 5704 5700 5695 5689 5683 5676 5669 5662 5654 5646 5637 5628 5618 5608 5598 5587 5576 5565 5554
5691 5696 5701 5705 5709 5712 5714 5716 5717 5718 5718 5717 5716 5715 5712 5710 5707 5704 5700 5696 5691 5686 5680 5674 5667 5660 5653 5645 5636 5627 5618 5608 5597 5586 5575 5564 5553 5542
5682 5687 5692 5696 5700 5703 5705 5708 5709 5710 5710 5709 5708 5706 5704 5702 5699 5696 5692 5688 5683 5677 5672 5665 5659 5652 5644 5635 5626 5617 5607 5596 5586 5575 5563 5552 5541 5530
5673 5678 5683 5688 5692 5695 5697 5699 5701 5701 5702 5701 5700 5698 5696 5694 5691 5688 5684 5679 5674 5669 5663 5657 5650 5643 5634 5626 5616 5607 5596 5586 5575 5563 5552 5542 5531 5519
5665 5670 5675 5679 5683 5686 5689 5691 5692 5693 5693 5693 5692 5690 5688 5686 5683 5679 5675 5671 5666 5660 5654 5648 5641 5633 5625 5616 5606 5596 5586 5576 5565 5553 5541 5530 5520 5510
5656 5661 5667 5671 5675 5678 5680 5682 5684 5684 5685 5685 5684 5682 5680 5678 5675 5671 5667 5662 5657 5651 5645 5639 5632 5624 5616 5606 5597 5587 5576 5564 5553 5542 5531 5521 5511 5501
5647 5653 5658 5663 5667 5670 5672 5674 5675 5676 5677 5676 5676 5674 5672 5669 5667 5663 5659 5654 5649 5642 5636 5630 5623 5615 5606 5596 5586 5576 5565 5554 5543 5532 5522 5512 5503 5493
5640 5645 5650 5655 5658 5661 5664 5666 5667 5668 5669 5668 5667 5666 5664 5661 5658 5654 5650 5646 5641 5636 5628 5620 5613 5605 5596 5587 5577 5566 5555 5544 5533 5523 5513 5504 5495 5486
5631 5637 5642 5646 5650 5653 5655 5657 5659 5660 5660 5660 5659 5658 5656 5653 5650 5647 5642 5638 5632 5626 5619 5611 5603 5595 5587 5577 5567 5556 5545 5535 5524 5515 5505 5496 5487 5478
5623 5628 5634 5638 5642 5645 5647 5649 5651 5652 5653 5653 5652 5650 5648 5645 5642 5639 5634 5629 5624 5617 5610 5603 5594 5586 5577 5568 5557 5547 5536 5526 5516 5507 5498 5489 5480 5472
5615 5620 5625 5630 5633 5636 5639 5641 5643 5644 5644 5644 5643 5641 5639 5637 5634 5631 5627 5622 5616 5609 5602 5594 5586 5577 5567 5558 5548 5538 5528 5518 5509 5500 5491 5482 5474 5466
5607 5612 5617 5621 5625 5628 5631 5633 5635 5636 5637 5636 5635 5634 5632 5629 5626 5623 5619 5614 5607 5601 5593 5586 5578 5569 5560 5550 5540 5530 5520 5511 5502 5493 5485 5476 5468 5460
5600 5605 5609 5613 5617 5621 5623 5625 5627 5628 5628 5628 5627 5626 5624 5622 5619 5615 5611 5605 5599 5593 5586 5578 5570 5561 5552 5542 5532 5523 5513 5504 5495 5487 5479 5470 5462 5455
5592 5597 5601 5606 5609 5613 5615 5617 5619 5620 5620 5620 5620 5619 5617 5614 5611 5607 5602 5597 5592 5585 5578 5571 5563 5554 5545 5536 5526 5516 5507 5498 5490 5482 5474 5465 5458 5450
5584 5589 5593 5598 5601 5605 5607 5609 5611 5612 5613 5613 5612 5611 5609 5606 5603 5599 5595 5590 5584 5578 5571 5563 5555 5547 5538 5530 5520 5511 5502 5493 5485 5477 5469 5461 5454 5446
5575 5580 5585 5589 5593 5597 5600 5602 5603 5605 5605 5606 5605 5603 5601 5599 5596 5592 5587 5582 5577 5571 5564 5557 5549 5541 5532 5523 5514 5505 5496 5489 5481 5473 5465 5457 5450 5443
5567 5572 5578 5582 5587 5590 5592 5594 5596 5597 5598 5598 5597 5596 5594 5591 5588 5585 5580 5575 5570 5564 5557 5551 5543 5535 5526 5517 5509 5500 5492 5484 5477 5469 5461 5454 5447 5440
5560 5565 5571 5575 5580 5583 5586 5587 5589 5590 5591 5591 5590 5589 5587 5584 5581 5577 5573 5569 5563 5557 5551 5544 5537 5529 5521 5512 5505 5496 5488 5481 5473 5466 5458 5451 5445 5438
5553 5559 5563 5568 5572 5576 5579 5581 5582 5583 5583 5583 5583 5582 5580 5577 5574 5571 5567 5562 5557 5552 5546 5539 5531 5523 5516 5508 5500 5492 5485 5478 5470 5463 5456 5449 5442 5436
5547 5552 5557 5561 5565 5569 5572 5573 5575 5576 5576 5577 5576 5575 5573 5571 5568 5565 5561 5557 5551 5546 5540 5533 5526 5519 5512 5504 5497 5489 5482 5475 5468 5461 5454 5447 5441 5434
5541 5546 5550 5554 5558 5562 5564 5566 5568 5569 5570 5570 5569 5568 5567 5565 5562 5559 5555 5551 5546 5541 5534 5528 5521 5515 5507 5500 5493 5487 5480 5473 5466 5459 5452 5446 5440 5434
5535 5540 5544 5548 5552 5555 5558 5560 5562 5563 5563 5563 5563 5562 5561 5559 5556 5553 5549 5545 5541 5535 5529 5523 5517 5511 5504 5497 5491 5484 5478 5471 5464 5457 5451 5445 5439 5433
5529 5534 5538 5542 5546 5549 5551 5553 5555 5556 5557 5557 5557 5556 5555 5553 5551 5548 5544 5540 5535 5530 5525 5519 5513 5507 5501 5494 5488 5482 5475 5469 5463 5456 5450 5444 5438 5433